Cosmos 1758 - Orbit

View from above orbital plane
View from above orbital plane
View from above satellite
View from above satellite

Ground track
Ground track

The orbit data is extracted from the following two-line orbital elements,

1 16791U 86046A   13144.17505105  .00001977  00000-0  15983-3 0  7132
2 16791 082.4744 034.2200 0020120 087.3948 272.9578 14.99124009462719
Epoch (UTC): 24 May 2013 04:12:04
Eccentricity: 0.0020120
inclination: 82.4744°
perigee height: 555 km
apogee height: 583 km
right ascension of ascending node: 34.2200°
argument of perigee: 87.3948°
revolutions per day: 14.99124009
mean anomaly at epoch: 272.9578°
orbit number at epoch: 46271

The dashed part of the orbit path shows where the satellite is in the earth's shadow,  

Developed and maintained by Chris Peat, Heavens-Above GmbH. Please read the updated FAQ before sending e-mail. Imprint. DLR